Regional Weather Roundup
Issued by NWS Northern Indiana

Home | Current Version | Previous Version | Text Only | Print | Product List | Glossary Off
Versions: 1 2 3 4 5 6 7 8 9 10 11 12 13 14 15 16 17 18 19 20 21 22 23 24 25 26 27 28 29 30 31 32 33 34 35 36 37 38 39 40 41 42 43 44 45 46 47 48 49 50

000
ASUS43 KIWX 312210
RWRIWX

KIWX WEATHER ROUNDUP
NATIONAL WEATHER SERVICE NORTHERN INDIANA
600 PM EDT MON AUG 31 2015

NOTE: "FAIR" INDICATES FEW OR NO CLOUDS BELOW 12,000 FEET WITH NO
SIGNIFICANT WEATHER AND/OR OBSTRUCTIONS TO VISIBILITY.

* THESE STATIONS ARE NOT UNDER NWS QUALITY CONTROL. THEY ALSO MAY NOT
  REPORT WEATHER SUCH AS PRECIPITATION OR FOG.

INZ001>027-312300-
NORTHERN INDIANA

CITY           SKY/WX    TMP DP  RH WIND       PRES   REMARKS
GARY*          MOSUNNY   82  66  57 CALM      30.02F
VALPARAISO     SUNNY     85  68  56 SW6       30.03F
MICHIGAN CITY* SUNNY     81  68  65 N3        30.03F
LAPORTE*       SUNNY     85  71  60 W3        30.04S
KNOX*          MOSUNNY   86  64  48 W6        30.02S
SOUTH BEND     SUNNY     83  68  60 W6        30.04F
ELKHART*       SUNNY     84  66  54 W7        30.04F
GOSHEN         SUNNY     84  68  58 W5        30.04S
MONTICELLO*    SUNNY     85  70  61 SW7       30.02S
LOGANSPORT*    MOSUNNY   84  61  45 SW7       30.05S
ROCHESTER*     SUNNY     88  68  51 SW5       30.04S
WARSAW*        MOSUNNY   86  68  54 CALM      30.04S
ANGOLA*        SUNNY     88  70  55 CALM      30.05S
FORT WAYNE     MOSUNNY   85  67  54 SW7       30.05S
HUNTINGTON*    MOSUNNY   85  64  49 W5        30.04S
PERU/GRISSOM   MOSUNNY   87  67  52 SW10      30.04S
MARION*        MOSUNNY   83  58  42 CALM      30.05F

$$
INZ028>050-312300-
CENTRAL INDIANA

CITY           SKY/WX    TMP DP  RH WIND       PRES   REMARKS
LAFAYETTE      MOSUNNY   86  67  52 SW7       30.03S
KOKOMO*        PTSUNNY   88  66  48 W7        30.04S
MUNCIE*        MOSUNNY   83  67  58 W8        30.05F
INDIANAPOLIS   MOSUNNY   84  66  54 S12       30.05F

$$
MIZ043>046-050>051-056>058-064>065-071>073-077>080-312300-
SOUTHWEST LOWER MICHIGAN

CITY           SKY/WX    TMP DP  RH WIND       PRES   REMARKS
BATTLE CREEK   SUNNY     82  67  60 W9        30.06S
BENTON HARBOR  SUNNY     77  65  66 VRB3      30.04S
COLDWATER*     SUNNY     83  67  58 W6        30.04F
HILLSDALE*     SUNNY     83  65  53 W7        30.06S
HOLLAND        SUNNY     78  66  66 SW7       30.05F
GRAND RAPIDS   MOSUNNY   81  67  62 W8        30.04F
KALAMAZOO      MOSUNNY   82  67  60 SW8       30.05S
STURGIS*       SUNNY     82  70  65 W6        30.04S
THREE RIVERS*  FAIR      84  68  59 W7        30.04S

$$
OHZ001>008-015>018-024>025-312300-
NORTHWEST OHIO

CITY           SKY/WX    TMP DP  RH WIND       PRES   REMARKS
WAUSEON*       FAIR      84  70  61 W8        30.04S
DEFIANCE       MOSUNNY   85  67  54 CALM      30.04S
FINDLAY        SUNNY     86  67  52 SW5       30.04S
TOLEDO EXPRESS SUNNY     85  66  53 W6        30.03S
TOLEDO METCALF SUNNY     86  65  49 MISG      30.04S
LIMA           MOSUNNY   84  66  54 SW7       30.06S

$$
AND FOR LAKE MICHIGAN COASTAL AND OPEN LAKE BUOY OBSERVATIONS

STATION/POSITION TEMP    WIND        PRES    VSBY  WAVE
                 AIR SEA DIR/SP/G                  HT/PER
                 (F)     (DEG/KT/KT) (MB)    (MI)  (FT/S)
CALUMET HARBOR    76      50/  2/  5   N/A
MICHIGAN CITY     73      30/  7/  8   N/A
BURNS HARBOR      75      70/  9/ 10 1017.3F
SAINT JOSEPH      75     350/  3/  5 1017.9S
SOUTH LAKE BUOY   70 71  150/  6/  6 1016.5F         0
4 MI NW BRIDGMAN  74 76   50/  4/  4   N/A           0
MICHIGAN CITY     74 73   80/  6/  6   N/A           0

$$
&&



USA.gov is the U.S. government's official web portal to all federal, state and local government web resources and services.